Wetterdaten: Sonntag, 05.10.2014
Datum Zeit Temperatur Luftfeuchte Luftdruck Regen Wind Richtung Richtung Taupunkt Windchill Windben
05.10.2014 00:00 8,6 C 93 % 1019,4 hPa 0,0 l/m 0,0 km/h (0 Bft) S-SO 157 7,5 C 22,8 C 0,0 km/h (0 Bft)
05.10.2014 00:10 8,3 C 92 % 1019,6 hPa 0,0 l/m 0,0 km/h (0 Bft) S-SO 157 7,1 C 22,8 C 0,0 km/h (0 Bft)
05.10.2014 00:20 8,1 C 92 % 1019,6 hPa 0,0 l/m 0,0 km/h (0 Bft) S-SO 157 6,9 C 22,8 C 0,0 km/h (0 Bft)
05.10.2014 00:30 8,0 C 92 % 1019,2 hPa 0,0 l/m 0,0 km/h (0 Bft) S-SO 157 6,8 C 22,8 C 0,0 km/h (0 Bft)
05.10.2014 00:40 7,9 C 93 % 1019,2 hPa 0,0 l/m 0,0 km/h (0 Bft) S-SO 157 6,8 C 22,8 C 0,0 km/h (0 Bft)
05.10.2014 00:50 7,6 C 93 % 1019,1 hPa 0,0 l/m 0,0 km/h (0 Bft) S-SO 157 6,5 C 22,8 C 0,0 km/h (0 Bft)
05.10.2014 01:00 7,4 C 93 % 1019,1 hPa 0,0 l/m 0,0 km/h (0 Bft) S-SO 157 6,3 C 22,8 C 0,0 km/h (0 Bft)
05.10.2014 01:10 7,4 C 93 % 1019,1 hPa 0,0 l/m 0,0 km/h (0 Bft) S-SO 157 6,3 C 22,8 C 0,0 km/h (0 Bft)
05.10.2014 01:20 7,4 C 93 % 1019,1 hPa 0,0 l/m 0,0 km/h (0 Bft) S-SO 157 6,3 C 22,8 C 0,0 km/h (0 Bft)
05.10.2014 01:28 7,3 C 93 % 1018,9 hPa 0,0 l/m 0,0 km/h (0 Bft) S-SO 157 6,2 C 22,8 C 0,0 km/h (0 Bft)
05.10.2014 01:30 7,6 C 93 % 1018,9 hPa 0,0 l/m 0,0 km/h (0 Bft) S-SO 157 6,5 C 22,8 C 0,0 km/h (0 Bft)
05.10.2014 01:40 7,7 C 93 % 1018,9 hPa 0,0 l/m 0,0 km/h (0 Bft) S-SO 157 6,6 C 22,8 C 0,0 km/h (0 Bft)
05.10.2014 01:50 7,5 C 93 % 1018,9 hPa 0,0 l/m 0,0 km/h (0 Bft) S-SO 157 6,4 C 22,8 C 0,0 km/h (0 Bft)
05.10.2014 02:00 7,7 C 93 % 1018,9 hPa 0,0 l/m 0,0 km/h (0 Bft) S-SO 157 6,6 C 22,8 C 0,0 km/h (0 Bft)
05.10.2014 02:10 7,7 C 93 % 1018,9 hPa 0,0 l/m 0,0 km/h (0 Bft) S-SO 157 6,6 C 22,8 C 0,0 km/h (0 Bft)
05.10.2014 02:20 7,7 C 93 % 1018,9 hPa 0,0 l/m 0,0 km/h (0 Bft) S-SO 157 6,6 C 22,8 C 0,0 km/h (0 Bft)
05.10.2014 02:30 7,8 C 93 % 1019,1 hPa 0,0 l/m 0,0 km/h (0 Bft) S-SO 157 6,7 C 22,8 C 0,0 km/h (0 Bft)
05.10.2014 02:40 7,8 C 93 % 1019,1 hPa 0,0 l/m 0,0 km/h (0 Bft) S-SO 157 6,7 C 22,8 C 0,0 km/h (0 Bft)
05.10.2014 02:50 7,6 C 93 % 1019,1 hPa 0,0 l/m 0,0 km/h (0 Bft) S-SO 157 6,5 C 22,8 C 0,0 km/h (0 Bft)
05.10.2014 03:00 7,5 C 93 % 1019,1 hPa 0,0 l/m 0,0 km/h (0 Bft) S-SO 157 6,4 C 22,8 C 0,0 km/h (0 Bft)
05.10.2014 03:10 7,4 C 93 % 1018,8 hPa 0,0 l/m 0,0 km/h (0 Bft) S-SO 157 6,3 C 22,8 C 0,0 km/h (0 Bft)
05.10.2014 03:20 7,2 C 93 % 1018,8 hPa 0,0 l/m 0,0 km/h (0 Bft) S-SO 157 6,1 C 22,8 C 0,0 km/h (0 Bft)
05.10.2014 03:30 7,4 C 93 % 1018,9 hPa 0,0 l/m 0,0 km/h (0 Bft) S-SO 157 6,3 C 22,8 C 0,0 km/h (0 Bft)
05.10.2014 03:40 7,3 C 93 % 1018,9 hPa 0,0 l/m 0,0 km/h (0 Bft) S-SO 157 6,2 C 22,8 C 0,0 km/h (0 Bft)
05.10.2014 03:50 7,4 C 93 % 1018,9 hPa 0,0 l/m 0,0 km/h (0 Bft) S-SO 157 6,3 C 22,8 C 0,0 km/h (0 Bft)
05.10.2014 04:00 7,2 C 93 % 1018,9 hPa 0,0 l/m 0,0 km/h (0 Bft) S-SO 157 6,1 C 22,8 C 0,0 km/h (0 Bft)
05.10.2014 04:10 6,7 C 94 % 1018,7 hPa 0,0 l/m 0,0 km/h (0 Bft) S-SO 157 5,8 C 22,8 C 0,0 km/h (0 Bft)
05.10.2014 04:20 6,9 C 94 % 1018,7 hPa 0,0 l/m 0,0 km/h (0 Bft) S-SO 157 6,0 C 22,8 C 0,0 km/h (0 Bft)
05.10.2014 04:28 6,6 C 94 % 1018,7 hPa 0,0 l/m 0,0 km/h (0 Bft) S-SO 157 5,7 C 22,8 C 0,0 km/h (0 Bft)
05.10.2014 04:30 6,7 C 94 % 1018,7 hPa 0,0 l/m 0,0 km/h (0 Bft) S-SO 157 5,8 C 22,8 C 0,0 km/h (0 Bft)
05.10.2014 04:40 6,4 C 93 % 1018,8 hPa 0,0 l/m 0,0 km/h (0 Bft) S-SO 157 5,4 C 22,8 C 0,0 km/h (0 Bft)
05.10.2014 04:50 6,0 C 93 % 1018,8 hPa 0,0 l/m 0,0 km/h (0 Bft) S-SO 157 5,0 C 22,8 C 0,0 km/h (0 Bft)
05.10.2014 05:00 6,0 C 93 % 1018,6 hPa 0,0 l/m 0,0 km/h (0 Bft) S-SO 157 5,0 C 22,8 C 0,0 km/h (0 Bft)
05.10.2014 05:10 6,4 C 93 % 1018,6 hPa 0,0 l/m 0,0 km/h (0 Bft) S-SO 157 5,4 C 22,8 C 0,0 km/h (0 Bft)
05.10.2014 05:20 6,4 C 93 % 1018,6 hPa 0,0 l/m 0,0 km/h (0 Bft) S-SO 157 5,4 C 22,8 C 0,0 km/h (0 Bft)
05.10.2014 05:30 6,6 C 94 % 1018,6 hPa 0,0 l/m 0,0 km/h (0 Bft) S-SO 157 5,7 C 22,8 C 0,0 km/h (0 Bft)
05.10.2014 05:40 6,7 C 94 % 1018,6 hPa 0,0 l/m 0,0 km/h (0 Bft) S-SO 157 5,8 C 22,8 C 0,0 km/h (0 Bft)
05.10.2014 05:50 6,6 C 94 % 1018,6 hPa 0,0 l/m 0,0 km/h (0 Bft) S-SO 157 5,7 C 22,8 C 0,0 km/h (0 Bft)
05.10.2014 06:00 6,5 C 94 % 1018,6 hPa 0,0 l/m 0,0 km/h (0 Bft) S-SO 157 5,6 C 22,8 C 0,0 km/h (0 Bft)
05.10.2014 06:10 6,3 C 94 % 1018,7 hPa 0,0 l/m 0,0 km/h (0 Bft) S-SO 157 5,4 C 22,8 C 0,0 km/h (0 Bft)
05.10.2014 06:20 6,7 C 94 % 1018,7 hPa 0,0 l/m 0,0 km/h (0 Bft) S-SO 157 5,8 C 22,8 C 0,0 km/h (0 Bft)
05.10.2014 06:30 6,9 C 94 % 1018,6 hPa 0,0 l/m 0,0 km/h (0 Bft) S-SO 157 6,0 C 22,8 C 0,0 km/h (0 Bft)
05.10.2014 06:40 7,0 C 94 % 1018,6 hPa 0,0 l/m 0,0 km/h (0 Bft) S-SO 157 6,1 C 22,8 C 0,0 km/h (0 Bft)
05.10.2014 06:50 6,9 C 94 % 1018,6 hPa 0,0 l/m 0,0 km/h (0 Bft) S-SO 157 6,0 C 22,8 C 0,0 km/h (0 Bft)
05.10.2014 07:00 7,0 C 94 % 1018,6 hPa 0,0 l/m 0,0 km/h (0 Bft) S-SO 157 6,1 C 22,8 C 0,0 km/h (0 Bft)
05.10.2014 07:10 7,0 C 94 % 1018,8 hPa 0,0 l/m 0,0 km/h (0 Bft) S-SO 157 6,1 C 22,8 C 0,0 km/h (0 Bft)
05.10.2014 07:20 6,7 C 94 % 1018,8 hPa 0,0 l/m 0,0 km/h (0 Bft) S-SO 157 5,8 C 22,8 C 0,0 km/h (0 Bft)
05.10.2014 07:28 6,9 C 94 % 1018,8 hPa 0,0 l/m 0,0 km/h (0 Bft) S-SO 157 6,0 C 22,8 C 0,0 km/h (0 Bft)
05.10.2014 07:30 6,8 C 94 % 1018,8 hPa 0,0 l/m 0,0 km/h (0 Bft) S-SO 157 5,9 C 22,8 C 0,0 km/h (0 Bft)
05.10.2014 07:40 7,0 C 94 % 1018,8 hPa 0,0 l/m 0,0 km/h (0 Bft) S-SO 157 6,1 C 22,8 C 0,0 km/h (0 Bft)
05.10.2014 07:50 7,5 C 94 % 1018,8 hPa 0,0 l/m 0,0 km/h (0 Bft) S-SO 157 6,6 C 22,8 C 0,0 km/h (0 Bft)
05.10.2014 08:00 7,9 C 94 % 1018,7 hPa 0,0 l/m 0,0 km/h (0 Bft) S-SO 157 7,0 C 22,8 C 0,0 km/h (0 Bft)
05.10.2014 08:10 8,0 C 94 % 1018,7 hPa 0,0 l/m 0,0 km/h (0 Bft) S-SO 157 7,1 C 22,8 C 0,0 km/h (0 Bft)
05.10.2014 08:20 8,0 C 94 % 1018,7 hPa 0,0 l/m 0,0 km/h (0 Bft) S-SO 157 7,1 C 22,8 C 0,0 km/h (0 Bft)
05.10.2014 08:30 8,2 C 94 % 1018,8 hPa 0,0 l/m 0,0 km/h (0 Bft) S-SO 157 7,3 C 22,8 C 0,0 km/h (0 Bft)
05.10.2014 08:40 8,7 C 94 % 1018,8 hPa 0,0 l/m 0,0 km/h (0 Bft) S-SO 157 7,8 C 22,8 C 0,0 km/h (0 Bft)
05.10.2014 08:50 9,2 C 94 % 1018,9 hPa 0,0 l/m 0,0 km/h (0 Bft) S-SO 157 8,3 C 22,8 C 0,0 km/h (0 Bft)
05.10.2014 09:00 9,4 C 94 % 1018,9 hPa 0,0 l/m 0,0 km/h (0 Bft) S-SO 157 8,5 C 22,8 C 0,0 km/h (0 Bft)
05.10.2014 09:10 9,3 C 94 % 1019,0 hPa 0,0 l/m 0,0 km/h (0 Bft) S-SO 157 8,4 C 22,8 C 0,0 km/h (0 Bft)
05.10.2014 09:20 9,4 C 94 % 1019,0 hPa 0,0 l/m 0,0 km/h (0 Bft) S-SO 157 8,5 C 22,8 C 0,0 km/h (0 Bft)
05.10.2014 09:30 9,5 C 94 % 1019,0 hPa 0,0 l/m 0,0 km/h (0 Bft) S-SO 157 8,6 C 22,8 C 0,0 km/h (0 Bft)
05.10.2014 09:40 9,5 C 94 % 1019,0 hPa 0,0 l/m 0,0 km/h (0 Bft) S-SO 157 8,6 C 22,8 C 0,0 km/h (0 Bft)
05.10.2014 09:50 9,7 C 94 % 1019,1 hPa 0,0 l/m 0,0 km/h (0 Bft) S-SO 157 8,8 C 22,8 C 0,0 km/h (0 Bft)
05.10.2014 10:00 9,5 C 94 % 1019,1 hPa 0,0 l/m 0,0 km/h (0 Bft) S-SO 157 8,6 C 22,8 C 0,0 km/h (0 Bft)
05.10.2014 10:10 9,3 C 94 % 1019,2 hPa 0,0 l/m 0,0 km/h (0 Bft) S-SO 157 8,4 C 22,8 C 0,0 km/h (0 Bft)
05.10.2014 10:18 9,4 C 94 % 1019,2 hPa 0,0 l/m 0,0 km/h (0 Bft) S-SO 157 8,5 C 22,8 C 0,0 km/h (0 Bft)
05.10.2014 10:20 9,7 C 94 % 1019,2 hPa 0,0 l/m 0,0 km/h (0 Bft) S-SO 157 8,8 C 22,8 C 0,0 km/h (0 Bft)
05.10.2014 10:30 10,1 C 94 % 1019,2 hPa 0,0 l/m 0,0 km/h (0 Bft) S-SO 157 9,2 C 22,8 C 0,0 km/h (0 Bft)
05.10.2014 10:40 10,8 C 94 % 1019,0 hPa 0,0 l/m 0,0 km/h (0 Bft) S-SO 157 9,9 C 22,8 C 0,0 km/h (0 Bft)
05.10.2014 10:50 11,3 C 94 % 1019,0 hPa 0,0 l/m 0,0 km/h (0 Bft) S-SO 157 10,4 C 22,8 C 0,0 km/h (0 Bft)
05.10.2014 11:00 12,0 C 94 % 1018,9 hPa 0,0 l/m 0,0 km/h (0 Bft) S-SO 157 11,1 C 22,8 C 0,0 km/h (0 Bft)
05.10.2014 11:10 12,7 C 93 % 1018,9 hPa 0,0 l/m 0,0 km/h (0 Bft) S-SO 157 11,6 C 22,8 C 0,0 km/h (0 Bft)
05.10.2014 11:20 12,7 C 93 % 1018,9 hPa 0,0 l/m 0,0 km/h (0 Bft) S-SO 157 11,6 C 22,8 C 0,0 km/h (0 Bft)
05.10.2014 11:30 13,8 C 92 % 1019,0 hPa 0,0 l/m 0,0 km/h (0 Bft) S-SO 157 12,5 C 22,8 C 0,0 km/h (0 Bft)
05.10.2014 11:40 16,2 C 82 % 1019,0 hPa 0,0 l/m 0,0 km/h (0 Bft) S-SO 157 13,1 C 22,8 C 0,0 km/h (0 Bft)
05.10.2014 11:50 16,4 C 75 % 1018,8 hPa 0,0 l/m 0,0 km/h (0 Bft) S-SO 157 12,0 C 22,8 C 0,0 km/h (0 Bft)
05.10.2014 12:00 16,6 C 75 % 1018,8 hPa 0,0 l/m 0,0 km/h (0 Bft) S-SO 157 12,1 C 22,8 C 0,0 km/h (0 Bft)
05.10.2014 12:10 17,6 C 73 % 1018,9 hPa 0,0 l/m 0,0 km/h (0 Bft) S-SO 157 12,7 C 22,8 C 0,0 km/h (0 Bft)
05.10.2014 12:20 18,0 C 72 % 1018,9 hPa 0,0 l/m 0,0 km/h (0 Bft) S-SO 157 12,9 C 22,8 C 0,0 km/h (0 Bft)
05.10.2014 12:30 14,9 C 77 % 1018,8 hPa 0,0 l/m 0,0 km/h (0 Bft) S-SO 157 10,9 C 22,8 C 0,0 km/h (0 Bft)
05.10.2014 12:40 17,7 C 70 % 1018,8 hPa 0,0 l/m 0,0 km/h (0 Bft) S-SO 157 12,2 C 22,8 C 0,0 km/h (0 Bft)
05.10.2014 12:50 17,7 C 64 % 1018,9 hPa 0,0 l/m 0,0 km/h (0 Bft) S-SO 157 10,8 C 22,8 C 0,0 km/h (0 Bft)
05.10.2014 13:00 18,0 C 62 % 1018,9 hPa 0,0 l/m 0,0 km/h (0 Bft) S-SO 157 10,6 C 22,8 C 0,0 km/h (0 Bft)
05.10.2014 13:10 18,2 C 62 % 1018,9 hPa 0,0 l/m 0,0 km/h (0 Bft) S-SO 157 10,8 C 22,8 C 0,0 km/h (0 Bft)
05.10.2014 13:18 18,9 C 58 % 1018,9 hPa 0,0 l/m 0,0 km/h (0 Bft) S-SO 157 10,5 C 22,8 C 0,0 km/h (0 Bft)
05.10.2014 13:20 19,0 C 58 % 1018,9 hPa 0,0 l/m 0,0 km/h (0 Bft) S-SO 157 10,5 C 22,8 C 0,0 km/h (0 Bft)
05.10.2014 13:30 18,8 C 55 % 1018,9 hPa 0,0 l/m 0,0 km/h (0 Bft) S-SO 157 9,6 C 22,8 C 0,0 km/h (0 Bft)
05.10.2014 13:40 16,9 C 60 % 1018,8 hPa 0,0 l/m 0,0 km/h (0 Bft) S-SO 157 9,1 C 22,8 C 0,0 km/h (0 Bft)
05.10.2014 13:50 16,9 C 60 % 1018,8 hPa 0,0 l/m 0,0 km/h (0 Bft) S-SO 157 9,1 C 22,8 C 0,0 km/h (0 Bft)
05.10.2014 14:00 17,5 C 59 % 1018,7 hPa 0,0 l/m 0,0 km/h (0 Bft) S-SO 157 9,4 C 22,8 C 0,0 km/h (0 Bft)
05.10.2014 14:10 17,2 C 58 % 1018,7 hPa 0,0 l/m 0,0 km/h (0 Bft) S-SO 157 8,9 C 22,8 C 0,0 km/h (0 Bft)
05.10.2014 14:20 17,2 C 58 % 1018,7 hPa 0,0 l/m 0,0 km/h (0 Bft) S-SO 157 8,9 C 22,8 C 0,0 km/h (0 Bft)
05.10.2014 14:30 18,3 C 57 % 1018,4 hPa 0,0 l/m 0,0 km/h (0 Bft) S-SO 157 9,6 C 22,8 C 0,0 km/h (0 Bft)
05.10.2014 14:40 18,7 C 56 % 1018,4 hPa 0,0 l/m 0,0 km/h (0 Bft) S-SO 157 9,7 C 22,8 C 0,0 km/h (0 Bft)
05.10.2014 14:50 16,8 C 59 % 1018,2 hPa 0,0 l/m 0,0 km/h (0 Bft) S-SO 157 8,7 C 22,8 C 0,0 km/h (0 Bft)
05.10.2014 15:00 16,8 C 62 % 1018,2 hPa 0,0 l/m 0,0 km/h (0 Bft) S-SO 157 9,5 C 22,8 C 0,0 km/h (0 Bft)
05.10.2014 15:10 18,9 C 55 % 1018,1 hPa 0,0 l/m 0,0 km/h (0 Bft) S-SO 157 9,7 C 22,8 C 0,0 km/h (0 Bft)
05.10.2014 15:20 18,6 C 56 % 1018,1 hPa 0,0 l/m 0,0 km/h (0 Bft) S-SO 157 9,6 C 22,8 C 0,0 km/h (0 Bft)
05.10.2014 15:30 17,6 C 58 % 1018,2 hPa 0,0 l/m 0,0 km/h (0 Bft) S-SO 157 9,2 C 22,8 C 0,0 km/h (0 Bft)
05.10.2014 15:40 17,3 C 61 % 1018,2 hPa 0,0 l/m 0,0 km/h (0 Bft) S-SO 157 9,7 C 22,8 C 0,0 km/h (0 Bft)
05.10.2014 15:50 18,1 C 59 % 1018,1 hPa 0,0 l/m 0,0 km/h (0 Bft) S-SO 157 10,0 C 22,8 C 0,0 km/h (0 Bft)
05.10.2014 16:00 18,1 C 57 % 1018,1 hPa 0,0 l/m 0,0 km/h (0 Bft) S-SO 157 9,4 C 22,8 C 0,0 km/h (0 Bft)
05.10.2014 16:10 17,7 C 59 % 1017,9 hPa 0,0 l/m 0,0 km/h (0 Bft) S-SO 157 9,6 C 22,8 C 0,0 km/h (0 Bft)
05.10.2014 16:18 17,2 C 60 % 1017,9 hPa 0,0 l/m 0,0 km/h (0 Bft) S-SO 157 9,4 C 22,8 C 0,0 km/h (0 Bft)
05.10.2014 16:20 17,4 C 60 % 1017,7 hPa 0,0 l/m 0,0 km/h (0 Bft) S-SO 157 9,6 C 22,8 C 0,0 km/h (0 Bft)
05.10.2014 16:30 16,6 C 62 % 1017,7 hPa 0,0 l/m 0,0 km/h (0 Bft) S-SO 157 9,3 C 22,8 C 0,0 km/h (0 Bft)
05.10.2014 16:40 16,1 C 65 % 1017,4 hPa 0,0 l/m 0,0 km/h (0 Bft) S-SO 157 9,5 C 22,8 C 0,0 km/h (0 Bft)
05.10.2014 16:50 16,0 C 65 % 1017,4 hPa 0,0 l/m 0,0 km/h (0 Bft) S-SO 157 9,4 C 22,8 C 0,0 km/h (0 Bft)
05.10.2014 17:00 15,9 C 68 % 1017,4 hPa 0,0 l/m 0,0 km/h (0 Bft) S-SO 157 10,0 C 22,8 C 0,0 km/h (0 Bft)
05.10.2014 17:10 15,6 C 68 % 1017,4 hPa 0,0 l/m 0,0 km/h (0 Bft) S-SO 157 9,7 C 22,8 C 0,0 km/h (0 Bft)
05.10.2014 17:20 15,6 C 68 % 1017,4 hPa 0,0 l/m 0,0 km/h (0 Bft) S-SO 157 9,7 C 22,8 C 0,0 km/h (0 Bft)
05.10.2014 17:30 15,4 C 69 % 1017,4 hPa 0,0 l/m 0,0 km/h (0 Bft) S-SO 157 9,7 C 22,8 C 0,0 km/h (0 Bft)
05.10.2014 17:40 15,1 C 70 % 1017,4 hPa 0,0 l/m 0,0 km/h (0 Bft) S-SO 157 9,7 C 22,8 C 0,0 km/h (0 Bft)
05.10.2014 17:50 14,8 C 72 % 1017,4 hPa 0,0 l/m 0,0 km/h (0 Bft) S-SO 157 9,8 C 22,8 C 0,0 km/h (0 Bft)
05.10.2014 18:00 14,4 C 73 % 1017,4 hPa 0,0 l/m 0,0 km/h (0 Bft) S-SO 157 9,6 C 22,8 C 0,0 km/h (0 Bft)
05.10.2014 18:10 14,2 C 74 % 1017,4 hPa 0,0 l/m 0,0 km/h (0 Bft) S-SO 157 9,6 C 22,8 C 0,0 km/h (0 Bft)
05.10.2014 18:20 13,5 C 75 % 1017,4 hPa 0,0 l/m 0,0 km/h (0 Bft) S-SO 157 9,2 C 22,8 C 0,0 km/h (0 Bft)
05.10.2014 18:30 13,0 C 78 % 1017,5 hPa 0,0 l/m 0,0 km/h (0 Bft) S-SO 157 9,3 C 22,8 C 0,0 km/h (0 Bft)
05.10.2014 18:40 12,4 C 79 % 1017,5 hPa 0,0 l/m 0,0 km/h (0 Bft) S-SO 157 8,9 C 22,8 C 0,0 km/h (0 Bft)
05.10.2014 18:50 12,0 C 82 % 1017,4 hPa 0,0 l/m 0,0 km/h (0 Bft) S-SO 157 9,0 C 22,8 C 0,0 km/h (0 Bft)
05.10.2014 19:00 12,1 C 84 % 1017,4 hPa 0,0 l/m 0,0 km/h (0 Bft) S-SO 157 9,5 C 22,8 C 0,0 km/h (0 Bft)
05.10.2014 19:10 12,1 C 86 % 1017,4 hPa 0,0 l/m 0,0 km/h (0 Bft) S-SO 157 9,8 C 22,8 C 0,0 km/h (0 Bft)
05.10.2014 19:18 12,2 C 86 % 1017,4 hPa 0,0 l/m 0,0 km/h (0 Bft) S-SO 157 9,9 C 22,8 C 0,0 km/h (0 Bft)
05.10.2014 19:20 12,2 C 87 % 1017,6 hPa 0,0 l/m 0,0 km/h (0 Bft) S-SO 157 10,1 C 22,8 C 0,0 km/h (0 Bft)
05.10.2014 19:30 12,1 C 87 % 1017,6 hPa 0,0 l/m 0,0 km/h (0 Bft) S-SO 157 10,0 C 22,8 C 0,0 km/h (0 Bft)
05.10.2014 19:40 11,9 C 87 % 1017,5 hPa 0,0 l/m 0,0 km/h (0 Bft) S-SO 157 9,8 C 22,8 C 0,0 km/h (0 Bft)
05.10.2014 19:50 11,6 C 87 % 1017,5 hPa 0,0 l/m 0,0 km/h (0 Bft) S-SO 157 9,5 C 22,8 C 0,0 km/h (0 Bft)
05.10.2014 20:00 11,4 C 87 % 1017,6 hPa 0,0 l/m 0,0 km/h (0 Bft) S-SO 157 9,3 C 22,8 C 0,0 km/h (0 Bft)
05.10.2014 20:10 11,2 C 88 % 1017,6 hPa 0,0 l/m 0,0 km/h (0 Bft) S-SO 157 9,3 C 22,8 C 0,0 km/h (0 Bft)
05.10.2014 20:20 11,2 C 88 % 1017,6 hPa 0,0 l/m 0,0 km/h (0 Bft) S-SO 157 9,3 C 22,8 C 0,0 km/h (0 Bft)
05.10.2014 20:30 10,9 C 88 % 1017,6 hPa 0,0 l/m 0,0 km/h (0 Bft) S-SO 157 9,0 C 22,8 C 0,0 km/h (0 Bft)
05.10.2014 20:40 10,6 C 89 % 1017,6 hPa 0,0 l/m 0,0 km/h (0 Bft) S-SO 157 8,9 C 22,8 C 0,0 km/h (0 Bft)
05.10.2014 20:50 10,3 C 89 % 1017,7 hPa 0,0 l/m 0,0 km/h (0 Bft) S-SO 157 8,6 C 22,8 C 0,0 km/h (0 Bft)
05.10.2014 21:00 10,2 C 90 % 1017,7 hPa 0,0 l/m 0,0 km/h (0 Bft) S-SO 157 8,6 C 22,8 C 0,0 km/h (0 Bft)
05.10.2014 21:10 10,1 C 90 % 1017,8 hPa 0,0 l/m 0,0 km/h (0 Bft) S-SO 157 8,5 C 22,8 C 0,0 km/h (0 Bft)
05.10.2014 21:20 10,0 C 90 % 1017,8 hPa 0,0 l/m 0,0 km/h (0 Bft) S-SO 157 8,4 C 22,8 C 0,0 km/h (0 Bft)
05.10.2014 21:30 9,8 C 90 % 1017,8 hPa 0,0 l/m 0,0 km/h (0 Bft) S-SO 157 8,2 C 22,8 C 0,0 km/h (0 Bft)
05.10.2014 21:40 9,7 C 91 % 1017,8 hPa 0,0 l/m 0,0 km/h (0 Bft) S-SO 157 8,3 C 22,8 C 0,0 km/h (0 Bft)
05.10.2014 21:50 9,7 C 91 % 1017,9 hPa 0,0 l/m 0,0 km/h (0 Bft) S-SO 157 8,3 C 22,8 C 0,0 km/h (0 Bft)
05.10.2014 22:00 9,8 C 91 % 1017,9 hPa 0,0 l/m 0,0 km/h (0 Bft) S-SO 157 8,4 C 22,8 C 0,0 km/h (0 Bft)
05.10.2014 22:10 9,8 C 91 % 1017,9 hPa 0,0 l/m 0,0 km/h (0 Bft) S-SO 157 8,4 C 22,8 C 0,0 km/h (0 Bft)
05.10.2014 22:18 9,8 C 91 % 1017,9 hPa 0,0 l/m 0,0 km/h (0 Bft) S-SO 157 8,4 C 22,8 C 0,0 km/h (0 Bft)
05.10.2014 22:20 9,8 C 91 % 1017,9 hPa 0,0 l/m 0,0 km/h (0 Bft) S-SO 157 8,4 C 22,8 C 0,0 km/h (0 Bft)
05.10.2014 22:30 9,8 C 91 % 1017,9 hPa 0,0 l/m 0,0 km/h (0 Bft) S-SO 157 8,4 C 22,8 C 0,0 km/h (0 Bft)
05.10.2014 22:40 9,8 C 91 % 1017,6 hPa 0,0 l/m 0,0 km/h (0 Bft) S-SO 157 8,4 C 22,8 C 0,0 km/h (0 Bft)
05.10.2014 22:50 9,8 C 92 % 1017,6 hPa 0,0 l/m 0,0 km/h (0 Bft) S-SO 157 8,6 C 22,8 C 0,0 km/h (0 Bft)
05.10.2014 23:00 9,8 C 92 % 1017,6 hPa 0,0 l/m 0,0 km/h (0 Bft) S-SO 157 8,6 C 22,8 C 0,0 km/h (0 Bft)
05.10.2014 23:10 9,8 C 92 % 1017,6 hPa 0,0 l/m 0,0 km/h (0 Bft) S-SO 157 8,6 C 22,8 C 0,0 km/h (0 Bft)
05.10.2014 23:20 9,8 C 92 % 1017,6 hPa 0,0 l/m 0,0 km/h (0 Bft) S-SO 157 8,6 C 22,8 C 0,0 km/h (0 Bft)
05.10.2014 23:30 9,8 C 92 % 1017,2 hPa 0,0 l/m 0,0 km/h (0 Bft) S-SO 157 8,6 C 22,8 C 0,0 km/h (0 Bft)
05.10.2014 23:40 9,7 C 92 % 1017,2 hPa 0,0 l/m 0,0 km/h (0 Bft) S-SO 157 8,5 C 22,8 C 0,0 km/h (0 Bft)
05.10.2014 23:50 9,7 C 92 % 1017,2 hPa 0,0 l/m 0,0 km/h (0 Bft) S-SO 157 8,5 C 22,8 C 0,0 km/h (0 Bft)
_ Min-Zeit 05:00 15:10 23:50 - 23:50 - - 05:00 23:50 23:50
Minimum _ 6,0 C 55 % 1017,2 hPa - 0,0 km/h (0 Bft) - - 5,0 C 22,8 C 0,0 km/h (0 Bft)
_ Max-Zeit 13:20 11:00 00:20 23:50 23:50 - - 11:40 23:50 23:50
Maximum _ 19,0 C 94 % 1019,6 hPa 0,0 l/m 0,0 km/h
S-SO (0 Bft)
- - 13,1 C 22,8 C 0,0 km/h
S-SO (0 Bft)
Durchschnitt _ 11,2 C 84 % 1018,4 hPa #0,0 l/m 0,0 km/h (0 Bft) - - - 8,3 C 22,8 C 0,0 km/h (0 Bft)